TimeEET,TemperatureF,Dew PointF,Humidity,Sea Level PressureIn,VisibilityMPH,Wind Direction,Wind SpeedMPH,Gust SpeedMPH,PrecipitationIn,Events,Conditions,WindDirDegrees,DateUTC
12:00 AM,73.4,42.8,33,29.89,-9999.0,NW,6.9,-,N/A,,Clear,320,2013-10-05 22:00:00
1:00 AM,71.6,42.8,35,29.86,-9999.0,NW,6.9,-,N/A,,Clear,320,2013-10-05 23:00:00
2:00 AM,70,43,27,29.86,6,NNW,4.6,,,,,340,2013-10-06 00:00:00
2:00 AM,69.8,42.8,38,29.86,-9999.0,NNW,4.6,-,N/A,,Clear,340,2013-10-06 00:00:00
3:00 AM,68.0,42.8,40,29.86,-9999.0,North,5.8,-,N/A,,Clear,350,2013-10-06 01:00:00
4:00 AM,66.2,42.8,43,29.86,-9999.0,North,6.9,-,N/A,,Clear,350,2013-10-06 02:00:00
5:00 AM,66.2,42.8,43,29.89,-9999.0,North,8.1,-,N/A,,Clear,350,2013-10-06 03:00:00
6:00 AM,64.4,42.8,45,29.92,-9999.0,North,8.1,-,N/A,,Clear,350,2013-10-06 04:00:00
7:00 AM,66.2,44.6,46,29.92,-9999.0,North,8.1,-,N/A,,Clear,350,2013-10-06 05:00:00
8:00 AM,71,45,28,29.92,6,North,10.4,,,,,0,2013-10-06 06:00:00
8:00 AM,69.8,44.6,40,29.92,-9999.0,North,10.4,-,N/A,,Clear,360,2013-10-06 06:00:00
9:00 AM,73.4,46.4,38,29.95,-9999.0,North,12.7,-,N/A,,Clear,360,2013-10-06 07:00:00
10:00 AM,77.0,46.4,34,29.92,-9999.0,North,12.7,-,N/A,,Clear,350,2013-10-06 08:00:00
11:00 AM,80.6,44.6,28,29.92,-9999.0,North,11.5,-,N/A,,Clear,350,2013-10-06 09:00:00
12:00 PM,84.2,42.8,23,29.89,-9999.0,NNW,9.2,-,N/A,,Clear,340,2013-10-06 10:00:00
1:00 PM,86.0,37.4,18,29.86,-9999.0,North,11.5,-,N/A,,Clear,350,2013-10-06 11:00:00
2:00 PM,87,37,9,29.83,6,North,10.4,,,,,350,2013-10-06 12:00:00
2:00 PM,87.8,37.4,17,29.86,-9999.0,North,10.4,-,N/A,,Clear,350,2013-10-06 12:00:00
3:00 PM,87.8,35.6,16,29.86,-9999.0,North,10.4,-,N/A,,Clear,350,2013-10-06 13:00:00
4:00 PM,87.8,32.0,14,29.86,-9999.0,North,10.4,-,N/A,,Clear,350,2013-10-06 14:00:00
5:00 PM,86.0,30.2,13,29.86,-9999.0,North,10.4,-,N/A,,Clear,350,2013-10-06 15:00:00
6:00 PM,84.2,28.4,13,29.86,-9999.0,North,8.1,-,N/A,,Clear,360,2013-10-06 16:00:00
7:00 PM,80.6,28.4,15,29.89,-9999.0,North,5.8,-,N/A,,Clear,360,2013-10-06 17:00:00
8:00 PM,78,35,12,29.89,6,North,8.1,,,,,350,2013-10-06 18:00:00
8:00 PM,77.0,35.6,22,29.92,-9999.0,North,8.1,-,N/A,,Clear,350,2013-10-06 18:00:00
9:00 PM,75.2,35.6,24,29.92,-9999.0,NNW,6.9,-,N/A,,Clear,340,2013-10-06 19:00:00
10:00 PM,71.6,33.8,25,29.92,-9999.0,NNW,3.5,-,N/A,,Clear,330,2013-10-06 20:00:00
11:00 PM,71.6,32.0,23,29.92,-9999.0,NW,4.6,-,N/A,,Clear,320,2013-10-06 21:00:00